H1 CPF 2 NER 2025 12 17 9 351 01 glonass140 H2 1903001 9140 44299 2025 12 17 0 0 0 2025 12 20 23 45 0 900 1 1 0 0 0 1 H9 10 0 61026 0.00000 0 -14151373.201 11451209.299 17879962.207 10 0 61026 900.00000 0 -13250859.146 9315826.402 19718097.820 10 0 61026 1800.00000 0 -12447276.009 6927569.297 21173723.447 10 0 61026 2700.00000 0 -11782675.079 4338088.767 22218694.906 10 0 61026 3600.00000 0 -11289681.750 1606960.604 22832828.144 10 0 61026 4500.00000 0 -10990108.980 -1200541.776 23004281.455 10 0 61026 5400.00000 0 -10894042.485 -4015909.541 22729778.097 10 0 61026 6300.00000 0 -10999435.212 -6769994.584 22014665.643 10 0 61026 7200.00000 0 -11292227.506 -9395633.303 20872811.279 10 0 61026 8100.00000 0 -11746987.645 -11830190.728 19326335.099 10 0 61026 9000.00000 0 -12328045.901 -14017920.916 17405186.179 10 0 61026 9900.00000 0 -12991074.814 -15912046.932 15146569.033 10 0 61026 10800.00000 0 -13685049.807 -17476475.157 12594230.713 10 0 61026 11700.00000 0 -14354508.316 -18687073.495 9797621.394 10 0 61026 12600.00000 0 -14942012.901 -19532460.880 6810943.817 10 0 61026 13500.00000 0 -15390715.053 -20014275.568 3692109.178 10 0 61026 14400.00000 0 -15646911.766 -20146911.281 501619.080 10 0 61026 15300.00000 0 -15662486.890 -19956732.405 -2698605.123 10 0 61026 16200.00000 0 -15397133.758 -19480801.255 -5846422.995 10 0 61026 17100.00000 0 -14820264.414 -18765170.975 -8880682.336 10 0 61026 18000.00000 0 -13912523.715 -17862815.981 -11742409.343 10 0 61026 18900.00000 0 -12666843.012 -16831287.262 -14375958.146 10 0 61026 19800.00000 0 -11088987.371 -15730191.493 -16730096.923 10 0 61026 20700.00000 0 -9197571.567 -14618600.489 -18759008.999 10 0 61026 21600.00000 0 -7023542.429 -13552500.455 -20423189.132 10 0 61026 22500.00000 0 -4609147.504 -12582388.819 -21690217.209 10 0 61026 23400.00000 0 -2006431.713 -11751120.214 -22535394.065 10 0 61026 24300.00000 0 724676.541 -11092092.580 -22942226.845 10 0 61026 25200.00000 0 3518611.066 -10627849.999 -22902754.332 10 0 61026 26100.00000 0 6306652.593 -10369161.268 -22417705.655 10 0 61026 27000.00000 0 9019549.643 -10314613.050 -21496489.131 10 0 61026 27900.00000 0 11590166.861 -10450734.759 -20157011.164 10 0 61026 28800.00000 0 13956050.777 -10752649.752 -18425328.510 10 0 61026 29700.00000 0 16061806.322 -11185225.130 -16335140.430 10 0 61026 30600.00000 0 17861185.236 -11704671.235 -13927130.489 10 0 61026 31500.00000 0 19318799.469 -12260522.759 -11248170.824 10 0 61026 32400.00000 0 20411388.461 -12797917.089 -8350404.545 10 0 61026 33300.00000 0 21128587.953 -13260072.794 -5290224.508 10 0 61026 34200.00000 0 21473169.058 -13590862.558 -2127168.933 10 0 61026 35100.00000 0 21460738.760 -13737370.843 1077243.920 10 0 61026 36000.00000 0 21118915.837 -13652327.288 4260718.533 10 0 61026 36900.00000 0 20486018.377 -13296312.164 7361398.129 10 0 61026 37800.00000 0 19609319.660 -12639640.152 10319069.584 10 0 61026 38700.00000 0 18542947.236 -11663842.429 13076333.315 10 0 61026 39600.00000 0 17345514.791 -10362684.293 15579715.221 10 0 61026 40500.00000 0 16077587.304 -8742675.253 17780699.203 10 0 61026 41400.00000 0 14799086.451 -6823049.956 19636660.738 10 0 61026 42300.00000 0 13566745.310 -4635220.455 21111684.108 10 0 61026 43200.00000 0 12431718.713 -2221722.346 22177248.479 10 0 61026 44100.00000 0 11437448.709 365301.864 22812770.605 10 0 61026 45000.00000 0 10617873.551 3066019.784 23005994.748 10 0 61026 45900.00000 0 9996054.047 5815147.861 22753223.188 10 0 61026 46800.00000 0 9583273.655 8544420.106 22059383.575 10 0 61026 47700.00000 0 9378648.988 11185185.664 20937932.193 10 0 61026 48600.00000 0 9369266.259 13671028.955 19410595.027 10 0 61026 49500.00000 0 9530837.472 15940305.073 17506951.309 10 0 61026 50400.00000 0 9828848.629 17938486.442 15263867.015 10 0 61026 51300.00000 0 10220151.825 19620224.339 12724788.431 10 0 61026 52200.00000 0 10654934.576 20951040.379 9938908.531 10 0 61026 53100.00000 0 11078983.828 21908578.069 6960221.416 10 0 61026 54000.00000 0 11436149.574 22483362.550 3846482.313 10 0 61026 54900.00000 0 11670904.357 22679036.951 658092.653 10 0 61026 55800.00000 0 11730890.536 22512065.409 -2543068.501 10 0 61026 56700.00000 0 11569347.386 22010915.164 -5694844.151 10 0 61026 57600.00000 0 11147314.817 21214751.904 -8736006.850 10 0 61026 58500.00000 0 10435519.594 20171703.111 -11607450.195 10 0 61026 59400.00000 0 9415863.118 18936762.379 -14253340.823 10 0 61026 60300.00000 0 8082446.434 17569422.877 -16622208.098 10 0 61026 61200.00000 0 6442087.544 16131139.635 -18667949.826 10 0 61026 62100.00000 0 4514307.449 14682727.566 -20350734.060 10 0 61026 63000.00000 0 2330783.639 13281804.802 -21637779.173 10 0 61026 63900.00000 0 -65707.742 11980389.068 -22503996.716 10 0 61026 64800.00000 0 -2622818.396 10822748.221 -22932484.381 10 0 61026 65700.00000 0 -5280560.586 9843595.383 -22914859.297 10 0 61026 66600.00000 0 -7973566.470 9066704.477 -22451424.984 10 0 61026 67500.00000 0 -10633580.662 8504004.225 -21551168.491 10 0 61026 68400.00000 0 -13192082.720 8155188.451 -20231587.561 10 0 61026 69300.00000 0 -15582930.556 8007858.666 -18518350.916 10 0 61026 70200.00000 0 -17744914.788 8038192.439 -16444798.067 10 0 61026 71100.00000 0 -19624117.567 8212108.665 -14051288.237 10 0 61026 72000.00000 0 -21175977.470 8486879.818 -11384411.060 10 0 61026 72900.00000 0 -22366974.340 8813122.144 -8496074.591 10 0 61026 73800.00000 0 -23175863.925 9137078.705 -5442488.733 10 0 61026 74700.00000 0 -23594411.149 9403097.622 -2283064.432 10 0 61026 75600.00000 0 -23627592.076 9556199.607 920749.182 10 0 61026 76500.00000 0 -23293257.182 9544625.105 4106666.324 10 0 61026 77400.00000 0 -22621271.334 9322252.359 7212780.504 10 0 61026 78300.00000 0 -21652167.974 8850783.388 10178770.566 10 0 61026 79200.00000 0 -20435375.455 8101604.914 12947072.890 10 0 61026 80100.00000 0 -19027091.262 7057245.265 15463996.711 10 0 61026 81000.00000 0 -17487894.364 5712365.570 17680761.049 10 0 61026 81900.00000 0 -15880196.484 4074243.262 19554433.560 10 0 61026 82800.00000 0 -14265639.364 2162727.334 21048753.876 10 0 61026 83700.00000 0 -12702546.745 9666.830 22134826.397 10 0 61026 84600.00000 0 -11243537.051 -2342164.129 22791670.288 10 0 61026 85500.00000 0 -9933395.598 -4840600.654 23006617.024 10 0 61027 0.00000 0 -8807294.111 -7426017.619 22775548.848 10 0 61027 900.00000 0 -7889430.038 -10033578.690 22102973.983 10 0 61027 1800.00000 0 -7192142.675 -12595708.251 21001937.978 10 0 61027 2700.00000 0 -6715539.903 -15044689.567 19493772.503 10 0 61027 3600.00000 0 -6447651.741 -17315279.246 17607686.382 10 0 61027 4500.00000 0 -6365103.029 -19347231.976 15380206.118 10 0 61027 5400.00000 0 -6434276.753 -21087631.446 12854475.956 10 0 61027 6300.00000 0 -6612919.038 -22492931.261 10079430.072 10 0 61027 7200.00000 0 -6852118.366 -23530621.311 7108852.039 10 0 61027 8100.00000 0 -7098575.762 -24180450.333 4000338.973 10 0 61027 9000.00000 0 -7297070.313 -24435153.600 814189.766 10 0 61027 9900.00000 0 -7393015.876 -24300655.065 -2387761.390 10 0 61027 10800.00000 0 -7335000.685 -23795735.235 -5543343.713 10 0 61027 11700.00000 0 -7077201.984 -22951178.324 -8591257.464 10 0 61027 12600.00000 0 -6581572.769 -21808434.162 -11472266.741 10 0 61027 13500.00000 0 -5819707.088 -20417850.790 -14130353.879 10 0 61027 14400.00000 0 -4774303.751 -18836551.775 -16513812.639 10 0 61027 15300.00000 0 -3440165.066 -17126047.332 -18576258.406 10 0 61027 16200.00000 0 -1824686.782 -15349679.556 -20277535.435 10 0 61027 17100.00000 0 52183.203 -13570009.044 -21584503.167 10 0 61027 18000.00000 0 2158517.440 -11846252.635 -22471686.043 10 0 61027 18900.00000 0 4451490.519 -10231879.786 -22921773.995 10 0 61027 19800.00000 0 6878925.913 -8772468.322 -22925963.707 10 0 61027 20700.00000 0 9381244.678 -7503909.377 -22484133.781 10 0 61027 21600.00000 0 11893735.619 -6451036.539 -21604850.221 10 0 61027 22500.00000 0 14349052.912 -5626736.317 -20305201.857 10 0 61027 23400.00000 0 16679837.360 -5031576.729 -18610468.673 10 0 61027 24300.00000 0 18821352.088 -4653968.890 -16553629.276 10 0 61027 25200.00000 0 20714022.676 -4470853.925 -14174716.914 10 0 61027 26100.00000 0 22305775.496 -4448885.237 -11520036.616 10 0 61027 27000.00000 0 23554076.420 -4546055.116 -8641258.814 10 0 61027 27900.00000 0 24427584.589 -4713695.756 -5594407.459 10 0 61027 28800.00000 0 24907352.149 -4898768.817 -2438762.893 10 0 61027 29700.00000 0 24987520.069 -5046345.413 764298.457 10 0 61027 30600.00000 0 24675481.566 -5102170.352 3952504.207 10 0 61027 31500.00000 0 23991507.135 -5015201.038 7063901.780 10 0 61027 32400.00000 0 22967848.084 -4740012.687 10038065.452 10 0 61027 33300.00000 0 21647357.321 -4238967.451 12817270.749 10 0 61027 34200.00000 0 20081686.449 -3484055.274 15347613.090 10 0 61027 35100.00000 0 18329135.715 -2458328.497 17580049.054 10 0 61027 36000.00000 0 16452247.593 -1156869.491 19471340.538 10 0 61027 36900.00000 0 14515245.042 412749.578 20984884.156 10 0 61027 37800.00000 0 12581421.459 2230534.451 22091410.802 10 0 61027 38700.00000 0 10710590.799 4264661.585 22769542.899 10 0 61027 39600.00000 0 8956703.397 6472571.897 23006199.610 10 0 61027 40500.00000 0 7365725.709 8802520.689 22796843.131 10 0 61027 41400.00000 0 5973870.971 11195520.282 22145562.028 10 0 61027 42300.00000 0 4806253.101 13587595.694 21064990.409 10 0 61027 43200.00000 0 3876018.589 15912260.922 19576064.570 10 0 61027 44100.00000 0 3183991.340 18103114.182 17707621.517 10 0 61027 45000.00000 0 2718844.313 20096445.411 15495846.578 10 0 61027 45900.00000 0 2457790.020 21833748.549 12983579.981 10 0 61027 46800.00000 0 2367760.419 23264034.816 10219494.894 10 0 61027 47700.00000 0 2407026.383 24345850.968 7257161.952 10 0 61027 48600.00000 0 2527188.486 25048918.496 4154017.575 10 0 61027 49500.00000 0 2675455.137 25355325.153 970255.394 10 0 61027 50400.00000 0 2797111.848 25260218.599 -2232338.058 10 0 61027 51300.00000 0 2838077.077 24771972.617 -5391581.016 10 0 61027 52200.00000 0 2747436.218 23911818.349 -8446104.188 10 0 61027 53100.00000 0 2479845.882 22712955.412 -11336544.770 10 0 61027 54000.00000 0 1997705.920 21219179.645 -14006703.222 10 0 61027 54900.00000 0 1273006.181 19483084.606 -16404639.894 10 0 61027 55800.00000 0 288768.627 17563911.899 -18483689.727 10 0 61027 56700.00000 0 -959977.637 15525140.285 -20203374.919 10 0 61027 57600.00000 0 -2465731.173 13431914.407 -21530197.492 10 0 61027 58500.00000 0 -4208584.183 11348420.824 -22438296.059 10 0 61027 59400.00000 0 -6156818.558 9335321.095 -22909953.819 10 0 61027 60300.00000 0 -8268008.598 7447349.239 -22935947.733 10 0 61027 61200.00000 0 -10490585.585 5731173.955 -22515731.860 10 0 61027 62100.00000 0 -12765799.851 4223614.738 -21657451.125 10 0 61027 63000.00000 0 -15029999.201 2950286.130 -20377784.973 10 0 61027 63900.00000 0 -17217128.931 1924726.285 -18701623.737 10 0 61027 64800.00000 0 -19261349.250 1148045.610 -16661583.776 10 0 61027 65700.00000 0 -21099660.689 609109.183 -14297370.671 10 0 61027 66600.00000 0 -22674427.488 285244.182 -11655002.860 10 0 61027 67500.00000 0 -23935693.126 143441.161 -8785910.951 10 0 61027 68400.00000 0 -24843190.749 141997.142 -5745930.608 10 0 61027 69300.00000 0 -25367964.068 232529.636 -2594209.125 10 0 61027 70200.00000 0 -25493530.793 362275.002 607952.286 10 0 61027 71100.00000 0 -25216540.057 476572.530 3798297.217 10 0 61027 72000.00000 0 -24546896.747 521427.852 6914829.620 10 0 61027 72900.00000 0 -23507348.271 446046.144 9897021.856 10 0 61027 73800.00000 0 -22132551.983 205227.116 12686991.239 10 0 61027 74700.00000 0 -20467663.316 -238480.056 15230621.941 10 0 61027 75600.00000 0 -18566504.626 -912953.213 17478610.548 10 0 61027 76500.00000 0 -16489392.075 -1835082.253 19387415.423 10 0 61027 77400.00000 0 -14300711.757 -3009822.413 20920092.111 10 0 61027 78300.00000 0 -12066346.275 -4429755.750 22046999.606 10 0 61027 79200.00000 0 -9851058.686 -6075179.482 22746364.825 10 0 61027 80100.00000 0 -7715942.016 -7914717.918 23004695.463 10 0 61027 81000.00000 0 -5716039.411 -9906433.050 22817034.191 10 0 61027 81900.00000 0 -3898232.535 -11999388.376 22187049.994 10 0 61027 82800.00000 0 -2299484.643 -14135601.785 21126965.339 10 0 61027 83700.00000 0 -945509.876 -16252307.377 19657320.629 10 0 61027 84600.00000 0 150077.196 -18284433.284 17806580.256 10 0 61027 85500.00000 0 986097.589 -20167193.445 15610587.285 10 0 61028 0.00000 0 1573616.440 -21838686.273 13111876.801 10 0 61028 900.00000 0 1935233.133 -23242393.480 10358858.901 10 0 61028 1800.00000 0 2103882.628 -24329473.100 7404889.641 10 0 61028 2700.00000 0 2121199.721 -25060754.028 4307242.689 10 0 61028 3600.00000 0 2035514.511 -25408346.224 1126004.194 10 0 61028 4500.00000 0 1899564.103 -25356799.647 -2077089.353 10 0 61028 5400.00000 0 1768017.345 -24903762.544 -5239847.713 10 0 61028 6300.00000 0 1694917.504 -24060110.669 -8300834.664 10 0 61028 7200.00000 0 1731151.568 -22849541.151 -11200563.232 10 0 61028 8100.00000 0 1922053.896 -21307647.193 -13882654.782 10 0 61028 9000.00000 0 2305246.492 -19480511.643 -16294939.047 10 0 61028 9900.00000 0 2908808.344 -17422877.733 -18390473.239 10 0 61028 10800.00000 0 3749852.443 -15195973.116 -20128460.055 10 0 61028 11700.00000 0 4833571.990 -12865077.893 -21475046.399 10 0 61028 12600.00000 0 6152797.504 -10496938.091 -22403987.019 10 0 61028 13500.00000 0 7688085.042 -8157132.495 -22897159.963 10 0 61028 14400.00000 0 9408333.317 -5907502.649 -22944923.629 10 0 61028 15300.00000 0 11271905.185 -3803753.148 -22546308.278 10 0 61028 16200.00000 0 13228207.631 -1893322.130 -21709038.087 10 0 61028 17100.00000 0 15219665.014 -213610.527 -20449383.050 10 0 61028 18000.00000 0 17184003.480 1209356.508 -18791843.382 10 0 61028 18900.00000 0 19056751.251 2361780.736 -16768672.330 10 0 61028 19800.00000 0 20773850.116 3242419.878 -14419246.515 10 0 61028 20700.00000 0 22274268.483 3862381.925 -11789296.047 10 0 61028 21600.00000 0 23502506.146 4244394.753 -8930009.544 10 0 61028 22500.00000 0 24410885.280 4421583.293 -5897031.793 10 0 61028 23400.00000 0 24961531.130 4435807.434 -2749374.101 10 0 61028 24300.00000 0 25127958.975 4335632.463 451740.736 10 0 61028 25200.00000 0 24896200.631 4174019.370 3644075.640 10 0 61028 26100.00000 0 24265423.326 4005834.167 6765594.478 10 0 61028 27000.00000 0 23248015.321 3885282.802 9755670.994 10 0 61028 27900.00000 0 21869135.227 3863381.145 12556267.414 10 0 61028 28800.00000 0 20165744.565 3985567.738 15113059.548 10 0 61028 29700.00000 0 18185164.750 4289560.551 17376486.581 10 0 61028 30600.00000 0 15983219.408 4803548.397 19302705.616 10 0 61028 31500.00000 0 13622039.955 5544793.250 20854433.085 10 0 61028 32400.00000 0 11167626.030 6518702.240 22001657.685 10 0 61028 33300.00000 0 8687262.057 7718408.339 22722212.077 10 0 61028 34200.00000 0 6246896.781 9124877.467 23002193.356 10 0 61028 35100.00000 0 3908593.668 10707537.897 22836225.107 10 0 61028 36000.00000 0 1728156.776 12425406.247 22227556.750 10 0 61028 36900.00000 0 -246970.699 14228663.831 21187998.667 10 0 61028 37800.00000 0 -1979449.505 16060618.609 19737694.481 10 0 61028 38700.00000 0 -3443358.044 17859971.963 17904734.651 10 0 61028 39600.00000 0 -4625023.446 19563296.867 15724618.288 10 0 61028 40500.00000 0 -5523336.561 21107624.994 13239572.861 10 0 61028 41400.00000 0 -6149538.700 22433035.575 10497744.022 10 0 61028 42300.00000 0 -6526489.831 23485138.290 7552270.362 10 0 61028 43200.00000 0 -6687449.415 24217346.544 4460260.171 10 0 61028 44100.00000 0 -6674421.556 24592845.775 1281689.376 10 0 61028 45000.00000 0 -6536134.388 24586173.828 -1921758.375 10 0 61028 45900.00000 0 -6325739.181 24184346.348 -5087887.185 10 0 61028 46800.00000 0 -6098326.617 23387479.037 -8155196.677 10 0 61028 47700.00000 0 -5908365.616 22208879.543 -11064078.367 10 0 61028 48600.00000 0 -5807173.518 20674604.041 -13757977.028 10 0 61028 49500.00000 0 -5840525.350 18822495.978 -16184494.080 10 0 61028 50400.00000 0 -6046504.093 16700746.312 -18296411.080 10 0 61028 51300.00000 0 -6453683.844 14366034.701 -20052613.054 10 0 61028 52200.00000 0 -7079723.739 11881328.667 -21418893.381 10 0 61028 53100.00000 0 -7930433.222 9313432.233 -22368624.293 10 0 61028 54000.00000 0 -8999349.327 6730385.984 -22883279.759 10 0 61028 54900.00000 0 -10267845.097 4198826.657 -22952800.382 10 0 61028 55800.00000 0 -11705765.778 1781416.169 -22575793.050 10 0 61028 56700.00000 0 -13272567.138 -465553.052 -21759561.216 10 0 61028 57600.00000 0 -14918909.011 -2494276.954 -20519965.025 10 0 61028 58500.00000 0 -16588637.810 -4267195.017 -18881113.736 10 0 61028 59400.00000 0 -18221075.163 -5758309.064 -16874896.222 10 0 61028 60300.00000 0 -19753516.737 -6954011.457 -14540358.501 10 0 61028 61200.00000 0 -21123836.127 -7853389.075 -11922940.404 10 0 61028 62100.00000 0 -22273084.117 -8467991.634 -9073586.356 10 0 61028 63000.00000 0 -23147973.583 -8821075.587 -6047747.871 10 0 61028 63900.00000 0 -23703145.032 -8946357.059 -2904297.739 10 0 61028 64800.00000 0 -23903117.025 -8886328.109 295622.304 10 0 61028 65700.00000 0 -23723839.090 -8690209.055 3489797.244 10 0 61028 66600.00000 0 -23153781.639 -8411625.002 6616153.660 10 0 61028 67500.00000 0 -22194517.102 -8106106.151 9613969.510 10 0 61028 68400.00000 0 -20860768.064 -7828518.724 12425054.750 10 0 61028 69300.00000 0 -19179920.736 -7630535.936 14994879.553 10 0 61028 70200.00000 0 -17191024.547 -7558256.304 17273628.264 10 0 61028 71100.00000 0 -14943320.064 -7650070.044 19217159.032 10 0 61028 72000.00000 0 -12494356.947 -7934863.435 20787851.147 10 0 61028 72900.00000 0 -9907780.418 -8430636.563 21955324.587 10 0 61028 73800.00000 0 -7250878.071 -9143592.298 22697018.915 10 0 61028 74700.00000 0 -4591988.421 -10067734.611 22998621.343 10 0 61028 75600.00000 0 -1997877.858 -11184993.044 22854336.693 10 0 61028 76500.00000 0 468806.373 -12465868.366 22266994.747 10 0 61028 77400.00000 0 2751902.870 -13870572.859 21247993.395 10 0 61028 78300.00000 0 4803825.776 -15350618.270 19817078.769 10 0 61028 79200.00000 0 6587292.280 -16850785.944 18001966.399 10 0 61028 80100.00000 0 8076617.490 -18311397.732 15837810.172 10 0 61028 81000.00000 0 9258524.111 -19670793.664 13366528.636 10 0 61028 81900.00000 0 10132434.233 -20867913.557 10636000.747 10 0 61028 82800.00000 0 10710231.890 -21844875.015 7699145.775 10 0 61028 83700.00000 0 11015506.993 -22549440.088 4612904.357 10 0 61028 84600.00000 0 11082312.837 -22937267.090 1437139.739 10 0 61028 85500.00000 0 10953489.751 -22973852.600 -1766519.857 10 0 61029 0.00000 0 10678625.807 -22636081.427 -4935875.245 10 0 61029 900.00000 0 10311740.689 -21913318.138 -8009365.140 10 0 61029 1800.00000 0 9908791.227 -20807993.602 -10927261.929 10 0 61029 2700.00000 0 9525103.904 -19335660.006 -13632836.404 10 0 61029 3600.00000 0 9212843.700 -17524511.004 -16073464.192 10 0 61029 4500.00000 0 9018626.790 -15414385.751 -18201653.576 10 0 61029 5400.00000 0 8981378.734 -13055297.347 -19975974.093 10 0 61029 6300.00000 0 9130529.492 -10505546.216 -21361867.517 10 0 61029 7200.00000 0 9484622.356 -7829496.451 -22332325.155 10 0 61029 8100.00000 0 10050396.495 -5095107.246 -22868418.128 10 0 61029 9000.00000 0 10822382.722 -2371321.814 -22959670.102 10 0 61029 9900.00000 0 11783030.504 274577.790 -22604265.051 10 0 61029 10800.00000 0 12903361.715 2779540.096 -21809085.808 10 0 61029 11700.00000 0 14144124.386 5087131.273 -20589582.412 10 0 61029 12600.00000 0 15457398.455 7149640.659 -18969472.571 10 0 61029 13500.00000 0 16788586.320 8929817.540 -16980279.850 10 0 61029 14400.00000 0 18078704.567 10402167.334 -14660718.386 10 0 61029 15300.00000 0 19266880.255 11553753.895 -12055936.094 10 0 61029 16200.00000 0 20292946.353 12384475.452 -9216631.198 10 0 61029 17100.00000 0 21100026.507 12906803.990 -6198059.596 10 0 61029 18000.00000 0 21636999.643 13145000.560 -3058952.908 10 0 61029 18900.00000 0 21860739.957 13133841.220 139631.088 10 0 61029 19800.00000 0 21738037.381 12916909.051 3335502.472 10 0 61029 20700.00000 0 21247117.192 12544525.970 6466553.631 10 0 61029 21600.00000 0 20378694.556 12071413.223 9471969.779 10 0 61029 22500.00000 0 19136519.568 11554180.634 12293411.523 10 0 61029 23400.00000 0 17537389.915 11048751.623 14876146.135 10 0 61029 24300.00000 0 15610630.802 10607833.347 17170105.631 10 0 61029 25200.00000 0 13397064.004 10278538.905 19130851.467 10 0 61029 26100.00000 0 10947509.226 10100261.790 20720427.771 10 0 61029 27000.00000 0 8320880.134 10102891.750 21908087.486 10 0 61029 27900.00000 0 5581954.003 10305446.618 22670878.421 10 0 61029 28800.00000 0 2798907.076 10715177.104 22994078.886 10 0 61029 29700.00000 0 40717.089 11327181.713 22871475.492 10 0 61029 30600.00000 0 -2625460.514 12124547.709 22305478.491 10 0 61029 31500.00000 0 -5136835.167 13079012.281 21307072.900 10 0 61029 32400.00000 0 -7437338.666 14152116.514 19895606.491 10 0 61029 33300.00000 0 -9479701.237 15296804.404 18098418.533 10 0 61029 34200.00000 0 -11227161.407 16459400.697 15950315.947 10 0 61029 35100.00000 0 -12654739.884 17581885.458 13492906.265 10 0 61029 36000.00000 0 -13750025.504 18604370.844 10773799.401 10 0 61029 36900.00000 0 -14513441.297 19467676.759 7845692.792 10 0 61029 37800.00000 0 -14957980.268 20115897.653 4765356.796 10 0 61029 38700.00000 0 -15108422.399 20498852.666 1592539.309 10 0 61029 39600.00000 0 -15000066.117 20574315.800 -1611189.562 10 0 61029 40500.00000 0 -14677027.815 20309931.656 -4783630.576 10 0 61029 41400.00000 0 -14190181.269 19684735.143 -7863163.026 10 0 61029 42300.00000 0 -13594824.089 18690209.992 -10789943.281 10 0 61029 43200.00000 0 -12948169.967 17330840.122 -13507070.568 10 0 61029 44100.00000 0 -12306772.984 15624129.143 -15961696.960 10 0 61029 45000.00000 0 -11723993.195 13600085.653 -18106059.495 10 0 61029 45900.00000 0 -11247611.047 11300194.405 -19898414.011 10 0 61029 46800.00000 0 -10917691.914 8775915.057 -21303852.209 10 0 61029 47700.00000 0 -10764791.513 6086770.106 -22294985.744 10 0 61029 48600.00000 0 -10808578.549 3298100.852 -22852483.880 10 0 61029 49500.00000 0 -11056933.307 478584.173 -22965454.034 10 0 61029 50400.00000 0 -11505560.816 -2302387.000 -22631657.635 10 0 61029 51300.00000 0 -12138135.436 -4977350.884 -21857556.903 10 0 61029 52200.00000 0 -12926971.276 -7483341.919 -20658191.400 10 0 61029 53100.00000 0 -13834190.533 -9764267.206 -19056886.523 10 0 61029 54000.00000 0 -14813340.704 -11772995.680 -17084799.395 10 0 61029 54900.00000 0 -15811392.552 -13473073.424 -14780310.788 10 0 61029 55800.00000 0 -16771034.352 -14839994.076 -12188274.922 10 0 61029 56700.00000 0 -17633165.297 -15861972.146 -9359141.809 10 0 61029 57600.00000 0 -18339482.303 -16540187.916 -6347969.525 10 0 61029 58500.00000 0 -18835050.370 -16888494.993 -3213346.158 10 0 61029 59400.00000 0 -19070747.312 -16932604.342 -16243.059 10 0 61029 60300.00000 0 -19005478.982 -16708780.772 3181177.549 10 0 61029 61200.00000 0 -18608070.937 -16262108.477 6316776.542 10 0 61029 62100.00000 0 -17858756.313 -15644400.373 9329649.161 10 0 61029 63000.00000 0 -16750196.920 -14911840.800 12161309.451 10 0 61029 63900.00000 0 -15287994.434 -14122462.183 14756824.535 10 0 61029 64800.00000 0 -13490670.106 -13333562.811 17065876.730 10 0 61029 65700.00000 0 -11389113.781 -12599174.949 19043733.215 10 0 61029 66600.00000 0 -9025525.159 -11967689.887 20652105.076 10 0 61029 67500.00000 0 -6451891.285 -11479739.497 21859879.981 10 0 61029 68400.00000 0 -3728063.236 -11166422.736 22643715.331 10 0 61029 69300.00000 0 -919511.388 -11047950.826 22988481.452 10 0 61029 70200.00000 0 1905148.416 -11132767.207 22887547.245 10 0 61029 71100.00000 0 4676756.343 -11417178.526 22342903.527 10 0 61029 72000.00000 0 7328231.073 -11885511.693 21365122.176 10 0 61029 72900.00000 0 9797106.093 -12510790.262 19973151.995 10 0 61029 73800.00000 0 12027876.033 -13255901.897 18193955.063 10 0 61029 74700.00000 0 13974057.065 -14075208.346 16061990.093 10 0 61029 75600.00000 0 15599876.985 -14916530.924 13618552.054 10 0 61029 76500.00000 0 16881525.764 -15723428.761 10910979.947 10 0 61029 77400.00000 0 17807915.218 -16437674.666 7991747.188 10 0 61029 78300.00000 0 18380916.747 -17001824.906 4917451.381 10 0 61029 79200.00000 0 18615067.603 -17361774.929 1747722.353 10 0 61029 80100.00000 0 18536758.295 -17469193.226 -1455930.781 10 0 61029 81000.00000 0 18182935.425 -17283730.317 -4631311.407 10 0 61029 81900.00000 0 17599374.658 -16774908.881 -7716742.916 10 0 61029 82800.00000 0 16838596.659 -15923614.250 -10652268.232 10 0 61029 83700.00000 0 15957514.023 -14723121.059 -13380817.735 10 0 61029 84600.00000 0 15014908.606 -13179611.221 -15849322.465 10 0 61029 85500.00000 0 14068845.994 -11312159.783 -18009750.513 99